TimeIST,TemperatureF,Dew PointF,Humidity,Sea Level PressureIn,VisibilityMPH,Wind Direction,Wind SpeedMPH,Gust SpeedMPH,PrecipitationIn,Events,Conditions,WindDirDegrees,DateUTC
12:00 AM,77.0,71.6,83,29.92,1.9,Calm,Calm,-,N/A,,Haze,0,2013-10-09 18:30:00
1:00 AM,77.0,71.6,83,29.92,1.9,Calm,Calm,-,N/A,,Haze,0,2013-10-09 19:30:00
2:00 AM,77.0,71.6,83,29.89,1.9,ENE,4.6,-,N/A,,Haze,60,2013-10-09 20:30:00
2:30 AM,78,71,73,29.83,1,Calm,Calm,,,,Haze,,2013-10-09 21:00:00
3:00 AM,77.0,71.6,83,29.89,1.9,East,5.8,-,N/A,,Haze,80,2013-10-09 21:30:00
4:00 AM,77.0,71.6,83,29.89,1.9,ENE,4.6,-,N/A,,Haze,70,2013-10-09 22:30:00
5:00 AM,75.2,69.8,83,29.92,1.9,East,3.5,-,N/A,,Haze,100,2013-10-09 23:30:00
5:30 AM,74,71,87,29.86,1,East,4.6,,,,Haze,90,2013-10-10 00:00:00
6:00 AM,75.2,71.6,89,29.92,1.9,East,6.9,-,N/A,,Haze,90,2013-10-10 00:30:00
7:00 AM,77.0,71.6,83,29.95,1.9,East,8.1,-,N/A,,Haze,80,2013-10-10 01:30:00
8:00 AM,78.8,71.6,78,29.95,1.9,East,6.9,-,N/A,,Haze,90,2013-10-10 02:30:00
8:30 AM,81,72,69,29.90,1,ESE,6.9,,,,Haze,110,2013-10-10 03:00:00
9:00 AM,80.6,71.6,74,29.98,1.9,ESE,6.9,-,N/A,,Haze,120,2013-10-10 03:30:00
10:00 AM,84.2,71.6,66,29.98,2.5,ESE,8.1,-,N/A,,Haze,120,2013-10-10 04:30:00
11:00 AM,86.0,71.6,62,29.98,2.5,ESE,9.2,-,N/A,,Haze,120,2013-10-10 05:30:00
11:30 AM,88,71,47,29.88,2,ESE,6.9,,,,Haze,110,2013-10-10 06:00:00
12:00 PM,89.6,71.6,55,29.95,2.5,SE,6.9,-,N/A,,Haze,130,2013-10-10 06:30:00
1:00 PM,89.6,69.8,52,29.92,2.5,East,10.4,-,N/A,,Haze,100,2013-10-10 07:30:00
2:00 PM,91.4,68.0,46,29.89,2.5,East,9.2,-,N/A,,Haze,100,2013-10-10 08:30:00
2:30 PM,91,66,34,29.78,2,ESE,9.2,,,,Haze,110,2013-10-10 09:00:00
3:00 PM,91.4,68.0,46,29.86,2.5,ESE,5.8,-,N/A,,Haze,110,2013-10-10 09:30:00
4:00 PM,91.4,64.4,41,29.86,2.5,ENE,5.8,-,N/A,,Haze,60,2013-10-10 10:30:00
5:00 PM,91.4,66.2,43,29.86,2.5,East,5.8,-,N/A,,Haze,100,2013-10-10 11:30:00
6:00 PM,87.8,66.2,49,29.86,2.5,East,5.8,-,N/A,,Haze,100,2013-10-10 12:30:00
8:00 PM,82.4,68.0,62,29.89,1.9,Calm,Calm,-,N/A,,Haze,0,2013-10-10 14:30:00
8:30 PM,81,68,56,29.56,1,East,5.8,,,,Haze,90,2013-10-10 15:00:00
9:00 PM,80.6,68.0,65,29.92,1.9,ESE,5.8,-,N/A,,Haze,110,2013-10-10 15:30:00
10:00 PM,78.8,69.8,74,29.92,1.9,East,4.6,-,N/A,,Haze,100,2013-10-10 16:30:00
11:00 PM,77.0,69.8,78,29.92,1.9,East,5.8,-,N/A,,Haze,100,2013-10-10 17:30:00
11:30 PM,78,68,65,29.85,1,East,5.8,,,,Haze,90,2013-10-10 18:00:00